DIAMANT R/B, 1805

Orbit data source: Space-Track

DIAMANT R/B, 1805 is space debris in LEO originally from a launch on Fri, 26 Nov 1965 UTC launched from the Hamma Guira Space Track Range (HGSTR). Debris objects in space refer to the collection of defunct objects orbiting the Earth. Examples of debris include non-operational satellites, rocket bodies, and fragments generated from explosions, collisions, or faulty payload assembly.

Loading next visibility...
Identifier
1805, 1965-096B
Orbit
LEO
Country
Flag of FRFR
Related business
Manufacturer
Sud
Mission
Spacecraft
Bus & Motor
RUBIS, Unknown motor
Mass
65 kg wet, 65 kg dry
Launch date (UTC)
1965-11-26 (60 years ago)
Launch vehicle
Unknown
Launch site
Hamma Guira Space Track Range (HGSTR)
Object type
Payload
Rocket body
Debris
Shape & HBR
Cyl, 1.1 m
Radar Cross Section
1.347 m², Large (>1 m²)

Expand to show TLE details & history
Last TLE update: 9 hours ago

TLE from 9 hours ago
0 DIAMANT R/B
1 01805U 65096B   25261.19213962  .00002267  00000-0  47066-3 0  9992
2 01805  34.2486 316.4915 0587631 201.6322 155.8525 13.86687109966919
Epoch: 2025-09-18T04:36Z
TLE epoch observation values (Epoch: 2025-09-18T04:36:40.863Z)
Latitude
0.00001°
Longitude
-110.03601°
Altitude
1,335.395 km
Speed
6.995 km/s
True Right ascension
21h 05m 57s
True Declination
0° 00' 00"
Sunlit
Object was in full shadow at epoch
Visualization orbit readout
Latitude
Unknown
Longitude
Unknown
Altitude
Unknown
Speed
Unknown
Apparent Right ascension
Unknown
Apparent Declination
Unknown
Sunlit
N/A
Visualization observer readout
Local Sidereal Time
06:11:46
Azimuth
Unknown
Elevation
Unknown
Doppler factor
Unknown
Orbital elements
Apogee altitude
1,373.683 km
Perigee altitude
513.206 km
Semi-major axis
7,321.582 km
Eccentricity
0.05876
Inclination
34.2486°
RAAN
316.4915°
Arg. of periapsis
201.6322°
True anomaly
158.4329°
Mean anomaly
155.8525°
Eccentric anomaly
157.15942°
Mean motion
3.46446 °/min
Orbital period
103.91 mins
BSTAR
0.00047066
Loading maneuver chart data...
Computing Atmospheric mass density...
Loading historical data...
Loading historical data...
Loading historical data...
Loading historical data...
Loading historical data...
Loading historical data...
Loading historical data...
Other satellites on launch #96 in the year 1965 (1965-11-26 UTC)

Documentation

Showing up to 5 results
|